Flag for U.S.A. Weather past 2 weeks in Angels Camp, California, U.S.A.

Now
62 °F

Clear.


Feels Like: 62 °F
Forecast: 55 / 92 °F
Wind: 6 mph from Northwest

Location: Modesto City-County-Sham Field

Current Time: Aug 21, 2014 at 3:55:08 AM

Latest Report: Aug 21, 2014 at 2:53 AM


Visibility: 10 mi

Pressure: 29.88 "Hg

Humidity: 80%

Dew point: 56 °F

Location of Angels CampLocation

Historic Weather in Angels Camp — Graph

°F

Angels Camp temperature yesterday

Maximum temperature yesterday: 86 °F (at 4:53 PM)
Minimum temperature yesterday: 61 °F (at 5:53 AM)
Average temperature yesterday: 72 °F

Past Weeks' High & Low Weather Summary

 TemperatureHumidityPressure
High96 °F (Aug 11, 3:53 PM)87% (Aug 20, 5:53 AM)29.99 "Hg (Aug 20, 5:53 AM)
Low59 °F (Aug 10, 5:53 AM)14% (Aug 17, 2:53 PM)29.70 "Hg (Aug 18, 6:53 PM)
Average77 °F48%29.87 "Hg
* Reported Aug 6 1:53 AM — Aug 21 1:53 AM, Angels Camp, Weather by CustomWeather, © 2014

Note: Actual official high and low records may vary slightly from our data, if they occured in-between our weather recording intervals... More about our weather records

Advertising

Angels Camp weather history for previous 24 hours

 ConditionsComfort  
Time TempWeatherWind HumidityBarometerVisibility
1:53 AM
Aug 21
64 °FClear.6 mph75%29.88 "Hg10 mi
12:53 AM64 °FClear.7 mph75%29.88 "Hg10 mi
11:53 PM
Aug 20
66 °FClear.8 mph70%29.88 "Hg10 mi
10:53 PM68 °FClear.8 mph65%29.87 "Hg10 mi
9:53 PM70 °FClear.8 mph64%29.87 "Hg10 mi
8:53 PM73 °FClear.10 mph59%29.84 "Hg10 mi
7:53 PM76 °FSunny.10 mph54%29.82 "Hg10 mi
6:53 PM81 °FSunny.15 mph45%29.81 "Hg10 mi
5:53 PM85 °FSunny.8 mph39%29.81 "Hg10 mi
4:53 PM86 °FSunny.5 mph36%29.82 "Hg10 mi
3:53 PM85 °FSunny.3 mph37%29.83 "Hg10 mi
2:53 PM83 °FSunny.7 mph40%29.85 "Hg10 mi
1:53 PM80 °FSunny.3 mph44%29.87 "Hg10 mi
12:53 PM78 °FSunny.8 mph48%29.89 "Hg10 mi
11:53 AM76 °FSunny.No wind52%29.89 "Hg10 mi
10:53 AM72 °FSunny.5 mph59%29.90 "Hg10 mi
9:53 AM70 °FSunny.3 mph64%29.89 "Hg10 mi
8:53 AM67 °FSunny.7 mph71%29.89 "Hg10 mi
7:53 AM64 °FSunny.7 mph81%29.87 "Hg10 mi
6:53 AM62 °FClear.7 mph83%29.85 "Hg10 mi
5:53 AM61 °FClear.7 mph87%29.82 "Hg10 mi
4:53 AM62 °FClear.6 mph83%29.82 "Hg10 mi
3:53 AM63 °FClear.7 mph81%29.81 "Hg10 mi
Weather by CustomWeather, © 2014

See weather overviewHow to use our weather pages